OBJECT_NAME,OBJECT_ID,EPOCH,MEAN_MOTION,ECCENTRICITY,INCLINATION,RA_OF_ASC_NODE,ARG_OF_PERICENTER,MEAN_ANOMALY,EPHEMERIS_TYPE,CLASSIFICATION_TYPE,NORAD_CAT_ID,ELEMENT_SET_NO,REV_AT_EPOCH,BSTAR,MEAN_MOTION_DOT,MEAN_MOTION_DDOT O3B FM5,2013-031A,2026-09-12T04:36:49.412448,5.00115703,.00024956,0.0828,318.5242,198.2460,203.2410,0,U,39188,999,24138,0,-.28E-6,0 O3B FM4,2013-031B,2026-09-10T17:06:04.307040,5.00115971,.00044943,0.0404,352.7610,149.7641,217.5054,0,U,39189,999,24131,0,-.28E-6,0 O3B FM2,2013-031C,2026-09-11T23:27:20.173248,5.00116110,.00026124,0.0348,358.6108,167.5788,193.8173,0,U,39190,999,24144,0,-.28E-6,0 O3B PFM,2013-031D,2026-09-12T04:35:31.018272,5.00116067,.00048789,0.0618,338.2371,169.3616,212.4311,0,U,39191,999,24101,0,-.28E-6,0 O3B FM3,2014-038A,2026-09-12T06:11:35.860416,5.00115800,.00035018,0.0486,353.4907,221.2929,145.1935,0,U,40079,999,21739,0,-.28E-6,0 O3B FM7,2014-038B,2026-09-12T00:06:12.075552,5.00115670,.00029172,0.0422,348.3442,143.0257,228.6549,0,U,40080,999,22221,0,-.28E-6,0 O3B FM6,2014-038C,2026-09-11T19:57:10.517472,5.00115806,.00025752,0.0458,352.1714,176.6296,191.2045,0,U,40081,999,22216,0,-.28E-6,0 O3B FM8,2014-038D,2026-09-11T11:38:05.389440,5.00116154,.0002761,0.0450,351.3625,179.5150,189.1271,0,U,40082,999,22225,0,-.28E-6,0 O3B FM10,2014-083A,2026-09-12T02:40:56.020800,5.00115419,.0002299,0.0488,347.3308,208.3403,164.3217,0,U,40348,999,21424,0,-.28E-6,0 O3B FM11,2014-083B,2026-09-12T02:59:11.084640,5.00115542,.00021924,0.0541,348.0240,169.1251,202.8605,0,U,40349,999,21426,0,-.28E-6,0 O3B FM12,2014-083C,2026-09-10T22:50:55.136256,5.00115999,.00024265,0.0535,348.6907,180.2202,191.0938,0,U,40350,999,21421,0,-.28E-6,0 O3B FM9,2014-083D,2026-09-12T04:16:35.225472,5.00116103,.0002603,0.0542,346.8280,182.2768,190.9008,0,U,40351,999,21442,0,-.28E-6,0 LEO 1 (LEO VANTAGE 1),2018-004C,2026-09-12T05:11:18.158496,14.68260364,.03486488,99.2409,184.9031,172.0279,188.6671,0,U,43113,999,45025,.99857208E-4,.1375E-4,0 O3B FM15,2018-024A,2026-09-12T01:05:00.212640,5.00115855,.00025588,0.0560,356.2474,176.0680,187.6883,0,U,43231,999,15537,0,-.28E-6,0 O3B FM16,2018-024B,2026-09-12T02:20:18.933504,5.00116034,.00025462,0.0585,359.5448,171.5161,188.9435,0,U,43232,999,15529,0,-.28E-6,0 O3B FM14,2018-024C,2026-09-12T03:19:07.653792,5.00115822,.00028226,0.0582,0.8589,168.9563,190.1905,0,U,43233,999,15529,0,-.28E-6,0 O3B FM13,2018-024D,2026-09-12T00:06:11.411136,5.00115656,.00009948,0.0570,342.1916,118.9964,258.8230,0,U,43234,999,15540,0,-.28E-6,0 O3B FM20,2019-020A,2026-09-11T23:08:50.496576,5.00115720,.00022327,0.0542,353.2834,175.7208,191.0005,0,U,44112,999,13591,0,-.28E-6,0 O3B FM19,2019-020B,2026-09-12T04:35:30.626016,5.00116022,.00029975,0.0774,341.0536,163.1211,215.8453,0,U,44113,999,13578,0,-.28E-6,0 O3B FM17,2019-020C,2026-09-12T01:43:11.430912,5.00115699,.00025605,0.0479,14.2730,158.8558,186.8746,0,U,44114,999,13587,0,-.28E-6,0 O3B FM18,2019-020D,2026-09-11T14:50:16.921824,5.00115419,.00027379,0.0545,352.8386,178.3371,188.8287,0,U,44115,999,13596,0,-.28E-6,0 SALSAT,2020-068K,2026-09-11T23:28:21.147456,15.30885844,.00094697,97.8880,263.4175,9.1845,350.9566,0,U,46495,999,32863,.20261281E-3,.5968E-4,0 O3B MPOWER F1,2022-174A,2026-09-12T06:30:54.282240,5.00114440,.00069143,0.0432,340.9705,195.7853,139.3473,0,U,54755,999,6971,0,-.28E-6,0 O3B MPOWER F2,2022-174B,2026-09-12T01:30:07.540128,5.00118290,.00055139,0.0401,344.7420,180.7390,194.5347,0,U,54756,999,6979,0,-.28E-6,0 O3B MPOWER F4,2023-059A,2026-09-12T03:02:36.282048,5.00115023,.0007701,0.0603,342.9417,185.6439,191.4317,0,U,56367,999,6294,0,-.28E-6,0 O3B MPOWER F3,2023-059B,2026-09-11T13:26:50.937792,5.00114921,.00064401,0.0607,342.0462,181.0984,196.8764,0,U,56368,999,5905,0,-.28E-6,0 O3B MPOWER F9,2025-153A,2026-09-12T03:04:38.373888,5.00115385,.00073008,0.0665,357.3633,186.1927,176.4387,0,U,64866,999,2391,0,-.28E-6,0 O3B MPOWER F10,2025-153B,2026-09-12T02:15:53.482464,5.00114844,.00044999,0.0622,355.5922,270.7541,93.6022,0,U,64867,999,2638,0,-.28E-6,0